Location: Czu?�w
(50.1404°N, 18.9919°E)
Time: 01:50:48
(UTC+00:00)

SL-08 RB Rocket - Pass Details

Date: 27 October 2020
Orbit: 648 x 683 km, 97.8° (Epoch: 24 November)

Event Time Altitude Azimuth Distance (km) Brightness Sun altitude
Exits shadow 17:22:29 34° 57° (ENE) 1,087 4.4 -18.8°
Drops below altitude 10° 17:26:13 10° 2° (N) 2,074 6.3 -19.4°
Sets 17:28:36 0° 353° (N) 2,995 7.2 -19.7°
